| time (UTC) | temp F | wind direction | speed MPH | gust MPH | rain 1hr in | rain 24hr in | rain mn in | humidity % | barometer mb |
| 20260503004058 | 40 | 221 | 1.0 | 2.0 | 0.00 | 0.00 | 0.00 | 82 | 1019.6 |
| 20260503003050 | 39 | 216 | 1.0 | 2.0 | 0.00 | 0.00 | 0.00 | 84 | 1019.7 |
| 20260503002042 | 39 | 212 | 0.0 | 1.0 | 0.00 | 0.00 | 0.00 | 82 | 1019.8 |
| 20260503001035 | 40 | 213 | 0.0 | 1.0 | 0.00 | 0.00 | 0.00 | 82 | 1019.9 |
| 20260503000027 | 40 | 212 | 0.0 | 0.0 | 0.00 | 0.00 | 0.00 | 83 | 1019.8 |
| 20260502235020 | 40 | 212 | 0.0 | 2.0 | 0.00 | 0.00 | 0.00 | 81 | 1019.9 |
| 20260502234015 | 41 | 230 | 1.0 | 3.0 | 0.00 | 0.00 | 0.00 | 82 | 1020.0 |
| 20260502233007 | 41 | 216 | 0.0 | 0.0 | 0.00 | 0.00 | 0.00 | 81 | 1020.1 |
| 20260502232000 | 41 | 210 | 0.0 | 2.0 | 0.00 | 0.00 | 0.00 | 81 | 1020.1 |
| 20260502230953 | 41 | 212 | 0.0 | 2.0 | 0.00 | 0.00 | 0.00 | 81 | 1020.1 |
| 20260502225944 | 41 | 214 | 0.0 | 2.0 | 0.00 | 0.00 | 0.00 | 80 | 1020.3 |
| 20260502224937 | 41 | 217 | 0.0 | 1.0 | 0.00 | 0.00 | 0.00 | 80 | 1020.1 |
| 20260502223930 | 41 | 212 | 0.0 | 0.0 | 0.00 | 0.00 | 0.00 | 80 | 1020.1 |
| 20260502222923 | 42 | 207 | 0.0 | 0.0 | 0.00 | 0.00 | 0.00 | 77 | 1020.1 |
| 20260502221916 | 42 | 211 | 0.0 | 0.0 | 0.00 | 0.00 | 0.00 | 77 | 1020.3 |
| 20260502220907 | 42 | 211 | 0.0 | 0.0 | 0.00 | 0.00 | 0.00 | 77 | 1020.1 |
| 20260502215900 | 43 | 214 | 0.0 | 0.0 | 0.00 | 0.00 | 0.00 | 77 | 1020.3 |
| 20260502214854 | 42 | 214 | 0.0 | 0.0 | 0.00 | 0.00 | 0.00 | 77 | 1020.3 |
| 20260502213847 | 43 | 211 | 0.0 | 0.0 | 0.00 | 0.00 | 0.00 | 75 | 1020.4 |
| 20260502212840 | 44 | 214 | 0.0 | 0.0 | 0.00 | 0.00 | 0.00 | 75 | 1020.3 |
| 20260502211832 | 44 | 218 | 0.0 | 0.0 | 0.00 | 0.00 | 0.00 | 73 | 1020.3 |
| 20260502210825 | 44 | 209 | 0.0 | 0.0 | 0.00 | 0.00 | 0.00 | 74 | 1020.6 |
| 20260502205818 | 45 | 213 | 0.0 | 0.0 | 0.00 | 0.00 | 0.00 | 72 | 1020.5 |
| 20260502204809 | 45 | 213 | 0.0 | 0.0 | 0.00 | 0.00 | 0.00 | 71 | 1020.7 |
| 20260502203802 | 45 | 209 | 0.0 | 0.0 | 0.00 | 0.00 | 0.00 | 72 | 1020.5 |
| 20260502202755 | 46 | 212 | 0.0 | 1.0 | 0.00 | 0.00 | 0.00 | 71 | 1020.7 |
| 20260502201747 | 46 | 219 | 1.0 | 1.0 | 0.00 | 0.00 | 0.00 | 71 | 1020.7 |
| 20260502200740 | 46 | 207 | 0.0 | 1.0 | 0.00 | 0.00 | 0.00 | 70 | 1020.7 |
| 20260502195734 | 48 | 213 | 0.0 | 1.0 | 0.00 | 0.00 | 0.00 | 68 | 1020.7 |
| 20260502194727 | 48 | 212 | 0.0 | 1.0 | 0.00 | 0.00 | 0.00 | 67 | 1020.8 |
| 20260502193720 | 50 | 213 | 0.0 | 1.0 | 0.00 | 0.00 | 0.00 | 65 | 1020.9 |
| 20260502192712 | 49 | 219 | 1.0 | 2.0 | 0.00 | 0.00 | 0.00 | 65 | 1021.0 |
| 20260502191705 | 51 | 211 | 1.0 | 2.0 | 0.00 | 0.00 | 0.00 | 62 | 1021.0 |
| 20260502190656 | 51 | 231 | 1.0 | 2.0 | 0.00 | 0.00 | 0.00 | 63 | 1020.8 |
| 20260502185650 | 53 | 239 | 2.0 | 2.0 | 0.00 | 0.00 | 0.00 | 60 | 1020.6 |
| 20260502184643 | 53 | 237 | 2.0 | 3.0 | 0.00 | 0.00 | 0.00 | 61 | 1020.8 |
| 20260502183636 | 54 | 232 | 2.0 | 2.0 | 0.00 | 0.00 | 0.00 | 60 | 1020.7 |
| 20260502182628 | 55 | 232 | 1.0 | 2.0 | 0.00 | 0.00 | 0.00 | 58 | 1020.7 |
| 20260502181621 | 55 | 224 | 1.0 | 2.0 | 0.00 | 0.00 | 0.00 | 58 | 1020.5 |
| 20260502180615 | 57 | 225 | 1.0 | 2.0 | 0.00 | 0.00 | 0.00 | 55 | 1020.4 |
| 20260502163509 | 75 | 234 | 1.0 | 2.0 | 0.00 | 0.00 | 0.00 | 26 | 1020.7 |
| 20260502162503 | 75 | 171 | 0.0 | 2.0 | 0.00 | 0.00 | 0.00 | 26 | 1020.7 |
| 20260502161456 | 75 | 120 | 1.0 | 4.0 | 0.00 | 0.00 | 0.00 | 25 | 1020.9 |
| 20260502160448 | 75 | 255 | 2.0 | 7.0 | 0.00 | 0.00 | 0.00 | 25 | 1021.0 |
| 20260502151412 | 77 | 227 | 3.0 | 8.0 | 0.00 | 0.00 | 0.00 | 24 | 1021.7 |
| 20260502150404 | 77 | 231 | 3.0 | 7.0 | 0.00 | 0.00 | 0.00 | 25 | 1021.6 |
| 20260502130239 | 77 | 214 | 2.0 | 6.0 | 0.00 | 0.00 | 0.00 | 26 | 1022.8 |
| 20260502123224 | 77 | 195 | 2.0 | 6.0 | 0.00 | 0.00 | 0.00 | 26 | 1023.1 |
| 20260502122219 | 75 | 183 | 2.0 | 6.0 | 0.00 | 0.00 | 0.00 | 26 | 1023.5 |
| 20260502121211 | 76 | 204 | 2.0 | 6.0 | 0.00 | 0.00 | 0.00 | 26 | 1023.6 |
| 20260502120203 | 75 | 137 | 2.0 | 6.0 | 0.00 | 0.00 | 0.00 | 27 | 1023.6 |
| 20260502115156 | 75 | 201 | 2.0 | 6.0 | 0.00 | 0.00 | 0.00 | 26 | 1023.8 |
| 20260502114149 | 75 | 206 | 2.0 | 7.0 | 0.00 | 0.00 | 0.00 | 28 | 1023.8 |
| 20260502113143 | 74 | 249 | 2.0 | 6.0 | 0.00 | 0.00 | 0.00 | 28 | 1024.0 |
| 20260502112136 | 75 | 222 | 1.0 | 4.0 | 0.00 | 0.00 | 0.00 | 28 | 1024.1 |
| 20260502111127 | 73 | 231 | 3.0 | 8.0 | 0.00 | 0.00 | 0.00 | 28 | 1024.2 |
| 20260502110120 | 74 | 212 | 3.0 | 7.0 | 0.00 | 0.00 | 0.00 | 28 | 1024.5 |
| 20260502105113 | 74 | 170 | 2.0 | 6.0 | 0.00 | 0.00 | 0.00 | 30 | 1024.5 |
| 20260502104105 | 75 | 233 | 2.0 | 8.0 | 0.00 | 0.00 | 0.00 | 30 | 1024.7 |
| 20260502103059 | 74 | 238 | 3.0 | 7.0 | 0.00 | 0.00 | 0.00 | 30 | 1024.8 |
| 20260502102052 | 73 | 223 | 2.0 | 7.0 | 0.00 | 0.00 | 0.00 | 32 | 1024.8 |
| 20260502101043 | 73 | 157 | 2.0 | 7.0 | 0.00 | 0.00 | 0.00 | 31 | 1024.9 |
| 20260502091010 | 71 | 249 | 2.0 | 6.0 | 0.00 | 0.00 | 0.00 | 35 | 1025.7 |
| 20260502070843 | 63 | 208 | 1.0 | 3.0 | 0.00 | 0.00 | 0.00 | 47 | 1026.4 |
| 20260502065835 | 62 | 169 | 1.0 | 3.0 | 0.00 | 0.00 | 0.00 | 47 | 1026.4 |
| 20260502064828 | 60 | 188 | 1.0 | 4.0 | 0.00 | 0.00 | 0.00 | 48 | 1026.6 |
| 20260502063821 | 60 | 164 | 0.0 | 2.0 | 0.00 | 0.00 | 0.00 | 53 | 1026.6 |
| 20260502062813 | 60 | 186 | 0.0 | 2.0 | 0.00 | 0.00 | 0.00 | 52 | 1026.6 |
| 20260502061806 | 59 | 204 | 0.0 | 0.0 | 0.00 | 0.00 | 0.00 | 55 | 1026.8 |
| 20260502060800 | 56 | 236 | 0.0 | 0.0 | 0.00 | 0.00 | 0.00 | 58 | 1026.7 |
| 20260502055753 | 56 | 205 | 0.0 | 0.0 | 0.00 | 0.00 | 0.00 | 58 | 1026.8 |
| 20260502054745 | 55 | 197 | 0.0 | 0.0 | 0.00 | 0.00 | 0.00 | 61 | 1026.7 |
| 20260502053738 | 54 | 186 | 0.0 | 0.0 | 0.00 | 0.00 | 0.00 | 61 | 1026.9 |
| 20260502052731 | 52 | 196 | 0.0 | 0.0 | 0.00 | 0.00 | 0.00 | 66 | 1026.8 |
| 20260502051723 | 47 | 199 | 0.0 | 0.0 | 0.00 | 0.00 | 0.00 | 74 | 1026.7 |
| 20260502050716 | 45 | 200 | 0.0 | 0.0 | 0.00 | 0.00 | 0.00 | 75 | 1027.0 |
| 20260502045708 | 45 | 183 | 0.0 | 0.0 | 0.00 | 0.00 | 0.00 | 74 | 1026.7 |
| 20260502044701 | 44 | 140 | 0.0 | 0.0 | 0.00 | 0.00 | 0.00 | 77 | 1026.7 |
| 20260502043654 | 42 | 156 | 0.0 | 0.0 | 0.00 | 0.00 | 0.00 | 84 | 1026.8 |
| 20260502042648 | 38 | 170 | 0.0 | 0.0 | 0.00 | 0.00 | 0.00 | 89 | 1026.9 |
| 20260502041640 | 37 | 207 | 0.0 | 0.0 | 0.00 | 0.00 | 0.00 | 89 | 1026.7 |
| 20260502040633 | 36 | 208 | 0.0 | 0.0 | 0.00 | 0.00 | 0.00 | 89 | 1026.4 |
| 20260502035625 | 36 | 210 | 0.0 | 0.0 | 0.00 | 0.00 | 0.00 | 89 | 1026.5 |
| 20260502034618 | 36 | 192 | 0.0 | 0.0 | 0.00 | 0.00 | 0.00 | 88 | 1026.6 |
| 20260502033611 | 36 | 199 | 0.0 | 0.0 | 0.00 | 0.00 | 0.00 | 89 | 1026.4 |
| 20260502032604 | 36 | 213 | 0.0 | 0.0 | 0.00 | 0.00 | 0.00 | 88 | 1026.4 |
| 20260502031557 | 36 | 214 | 0.0 | 0.0 | 0.00 | 0.00 | 0.00 | 88 | 1026.5 |
| 20260502030548 | 36 | 209 | 0.0 | 0.0 | 0.00 | 0.00 | 0.00 | 88 | 1026.6 |
| 20260502025541 | 37 | 211 | 0.0 | 0.0 | 0.00 | 0.00 | 0.00 | 86 | 1026.4 |
| 20260502024534 | 37 | 214 | 0.0 | 0.0 | 0.00 | 0.00 | 0.00 | 87 | 1026.4 |
| 20260502023528 | 38 | 210 | 0.0 | 1.0 | 0.00 | 0.00 | 0.00 | 86 | 1026.5 |
| 20260502022521 | 37 | 214 | 0.0 | 1.0 | 0.00 | 0.00 | 0.00 | 86 | 1026.4 |
| 20260502021521 | 38 | 213 | 1.0 | 2.0 | 0.00 | 0.00 | 0.00 | 86 | 1026.4 |
| 20260502020514 | 38 | 219 | 1.0 | 2.0 | 0.00 | 0.00 | 0.00 | 85 | 1026.5 |
| 20260502015507 | 38 | 207 | 0.0 | 1.0 | 0.00 | 0.00 | 0.00 | 87 | 1026.6 |
| 20260502014459 | 38 | 211 | 0.0 | 0.0 | 0.00 | 0.00 | 0.00 | 85 | 1026.6 |
| 20260502013453 | 39 | 208 | 0.0 | 0.0 | 0.00 | 0.00 | 0.00 | 85 | 1026.4 |
| 20260502012446 | 39 | 207 | 0.0 | 0.0 | 0.00 | 0.00 | 0.00 | 84 | 1026.5 |
| 20260502011438 | 40 | 207 | 0.0 | 1.0 | 0.00 | 0.00 | 0.00 | 82 | 1026.4 |
| 20260502010430 | 39 | 218 | 0.0 | 1.0 | 0.00 | 0.00 | 0.00 | 84 | 1026.5 |
| 20260502005422 | 39 | 207 | 0.0 | 0.0 | 0.00 | 0.00 | 0.00 | 84 | 1026.6 |